sat.trackr.live / text

‹ back to catalog

ONEWEB-0698

NORAD 61604 · 2024-188L

PAYLOAD ACTIVE UNKNOWN

§ Identity

Operator
Country
UK
Launch date
2024-10-20
Launch site
AFWTR
Launch vehicle
Mass (kg)
RCS (m²)

Purposes: comms

External: N2YO · Heavens-Above · Gunter

§ Orbital elements

Epoch: 2026-09-19T13:57:44.852832Z

Period
109.80 min
Inclination
87.8965°
Eccentricity
0.0001646
Mean motion
13.11416439 rev/d
Perigee alt
1,216.4 km
Apogee alt
1,218.9 km
Semi-major
7,595.8 km
B*
1.4923e-3
RAAN
2.3134°
Arg perigee
62.6910°
Mean anomaly
297.4385°
Rev number
9,684

§ Raw data

ONEWEB-06981 61604U 24188L   26262.58176913  .00000542  00000+0  14923-2 0  99992 61604  87.8965   2.3134 0001646  62.6910 297.4385 13.11416439 96844

JSON: /api/v1/satellites/61604 · /tle

For live sub-satellite position, see the globe view (requires WebGL).

§ Visibility from observer

Set your observer location to see the next 7 days of passes ≥ 10°. The values pass through the URL so the page stays shareable.

No JS? Fill the form by hand. The geolocation button needs JavaScript.